Weather reports worldwide

Advertisment
Pershore, United Kingdom (3529): temperature & dewpoint: 16.02.2019 01:00:00 - 22.02.2019 01:00:00 (GMT)Pershore, United Kingdom (3529): temperature -20cm & temperature -100cm: 16.02.2019 01:00:00 - 22.02.2019 01:00:00 (GMT)Pershore, United Kingdom (3529): wind speed: 16.02.2019 01:00:00 - 22.02.2019 01:00:00 (GMT)Pershore, United Kingdom (3529): wind direction: 16.02.2019 01:00:00 - 22.02.2019 01:00:00 (GMT)Pershore, United Kingdom (3529): reduced air pressure: 16.02.2019 01:00:00 - 22.02.2019 01:00:00 (GMT)Pershore, United Kingdom (3529): visibility: 16.02.2019 01:00:00 - 22.02.2019 01:00:00 (GMT)Pershore, United Kingdom (3529): precipitation: 16.02.2019 01:00:00 - 22.02.2019 01:00:00 (GMT)
Date & Time tt [°C] td [°C] tt -20cm [°C] tt -100cm [°C] ff [km/h] ff [kn] dd ppp [hPa] vv [km] rr [mm]
22.02.2019 01:00:00 4,9 4,1 - - 4 2 WNW 1031,9 2,5 0,0
22.02.2019 00:00:00 7,1 5,8 - - 8 4 SSW 1031,5 10 0,0
21.02.2019 23:00:00 8,0 7,1 - - 9 5 SSW 1031,1 12 0,0
21.02.2019 22:00:00 6,1 5,0 - - 5 3 SE 1030,7 7 0,0
21.02.2019 21:00:00 6,9 5,6 - - 4 2 S 1030,1 11 0,0
21.02.2019 20:00:00 8,0 6,4 - - 9 5 SSE 1029,3 15 0,0
21.02.2019 19:00:00 8,1 6,1 - - 8 4 SSE 1028,7 17 0,0
21.02.2019 18:00:00 11,3 7,9 - - 9 5 S 1027,8 23 0,0
21.02.2019 17:00:00 12,8 8,2 - - 15 8 SSW 1027,1 17 0,0
21.02.2019 16:00:00 13,8 8,3 - - 21 11 S 1026,4 23 0,0
21.02.2019 15:00:00 14,3 8,7 - - 18 10 SSW 1026,2 18 0,0
21.02.2019 14:00:00 14,8 9,0 - - 16 9 SSW 1025,9 16 0,0
21.02.2019 13:00:00 14,0 8,7 - - 16 9 S 1025,8 24 0,0
21.02.2019 12:00:00 14,9 9,6 - - 15 8 SSW 1025,6 12 0,0
21.02.2019 11:00:00 13,2 9,3 - - 15 8 SSW 1025,3 23 0,0
21.02.2019 10:00:00 11,1 8,7 - - 15 8 S 1024,8 20 0,0
21.02.2019 09:00:00 10,9 8,8 7,0 7,0 15 8 SW 1024,4 19 0,0
21.02.2019 08:00:00 10,4 8,5 - - 16 9 SW 1023,7 18 0,0
21.02.2019 07:00:00 10,1 8,2 - - 21 11 SW 1022,8 18 0,0
21.02.2019 06:00:00 9,5 7,6 - - 16 9 S 1022,2 23 0,0
21.02.2019 05:00:00 9,5 7,4 - - 11 6 S 1022,2 22 0,0
21.02.2019 04:00:00 9,6 7,4 - - 9 5 SSW 1021,9 22 0,0
21.02.2019 03:00:00 9,1 7,1 - - 5 3 S 1021,6 22 0,0
21.02.2019 02:00:00 9,7 7,1 - - 13 7 SSW 1021,3 19 0,0
21.02.2019 01:00:00 9,8 7,7 - - 16 9 S 1021,0 18 0,0
21.02.2019 00:00:00 10,1 7,1 - - 21 11 SSW 1020,8 29 0,0
20.02.2019 23:00:00 9,9 7,0 - - 18 10 SSW 1020,2 28 0,0
20.02.2019 22:00:00 10,2 7,1 - - 21 11 SSW 1019,9 22 0,0
20.02.2019 21:00:00 9,8 6,9 - - 18 10 SSW 1019,7 22 0,0
20.02.2019 20:00:00 9,9 7,0 - - 15 8 SSW 1019,6 24 0,0
20.02.2019 19:00:00 9,9 6,9 - - 16 9 SSW 1019,4 23 0,0
20.02.2019 18:00:00 10,5 6,8 - - 21 11 SSW 1018,7 24 0,0
20.02.2019 17:00:00 11,4 7,0 - - 21 11 SSW 1018,3 20 0,0
20.02.2019 16:00:00 12,0 6,6 - - 24 13 SSW 1018,3 22 0,0
20.02.2019 15:00:00 11,8 6,4 - - 24 13 SSW 1018,3 30 -
20.02.2019 14:00:00 11,8 6,1 - - 21 11 SSW 1018,4 35 -
20.02.2019 13:00:00 11,8 5,8 - - 22 12 SSW 1018,3 35 0,0
20.02.2019 12:00:00 11,5 5,5 - - 26 14 SSW 1018,5 30 0,0
20.02.2019 11:00:00 11,0 6,7 - - 24 13 SSW 1018,0 26 0,0
20.02.2019 10:00:00 10,4 6,7 - - 26 14 SSW 1017,7 24 0,2
20.02.2019 09:00:00 9,4 6,8 6,5 7,0 18 10 SSW 1017,1 16 0,0
20.02.2019 08:00:00 8,8 6,0 - - 13 7 SSW 1016,8 19 0,0
20.02.2019 07:00:00 8,6 5,9 - - 15 8 SSW 1016,2 22 0,0
20.02.2019 06:00:00 8,6 6,0 - - 16 9 SSW 1016,1 22 0,0
20.02.2019 05:00:00 8,6 6,0 - - 16 9 SSW 1016,1 21 0,0
20.02.2019 04:00:00 8,5 5,8 - - 16 9 SSW 1016,2 23 0,0
20.02.2019 03:00:00 8,6 5,8 - - 18 10 SSW 1016,3 30 0,0
20.02.2019 02:00:00 8,5 5,7 - - 18 10 SSW 1016,8 20 0,0
20.02.2019 01:00:00 8,1 5,5 - - 13 7 SSW 1016,9 20 0,0
20.02.2019 00:00:00 8,2 5,3 - - 18 10 SSW 1016,9 22 0,0
19.02.2019 23:00:00 8,2 5,3 - - 21 11 SSW 1017,1 17 0,0
19.02.2019 22:00:00 8,7 4,8 - - 18 10 SSW 1017,3 22 0,0
19.02.2019 21:00:00 8,5 4,6 - - 16 9 SSW 1017,2 22 0,0
19.02.2019 20:00:00 8,5 4,8 - - 15 8 S 1017,2 30 0,0
19.02.2019 19:00:00 8,4 4,4 - - 15 8 SSW 1017,2 40 0,0
19.02.2019 18:00:00 8,5 4,0 - - 16 9 S 1017,1 35 0,0
19.02.2019 17:00:00 9,3 3,9 - - 13 7 S 1017,1 30 0,0
19.02.2019 16:00:00 9,9 4,1 - - 15 8 SSW 1017,4 35 0,0
19.02.2019 15:00:00 9,8 4,0 - - 16 9 SW 1017,8 20 0,0
19.02.2019 14:00:00 9,0 5,2 - - 22 12 SW 1018,2 11 0,0
19.02.2019 13:00:00 8,9 4,8 - - 16 9 SSW 1018,4 21 0,0
19.02.2019 12:00:00 9,1 5,3 - - 18 10 SSW 1018,7 15 0,0
19.02.2019 11:00:00 8,0 5,5 - - 16 9 SSW 1018,7 14 0,0
19.02.2019 10:00:00 7,9 5,4 - - 15 8 SSW 1018,5 16 0,0
19.02.2019 09:00:00 6,2 4,9 6,4 7,0 13 7 SSW 1018,4 12 0,0
19.02.2019 08:00:00 4,2 3,7 - - 11 6 S 1017,9 11 0,0
19.02.2019 07:00:00 3,4 2,8 - - 8 4 SSW 1017,5 5 0,0
19.02.2019 06:00:00 4,2 3,8 - - 11 6 WSW 1017,1 13 0,0
19.02.2019 05:00:00 2,9 2,3 - - 8 4 SW 1017,0 10 0,0
19.02.2019 04:00:00 4,4 3,5 - - 13 7 WSW 1016,5 12 0,0
19.02.2019 03:00:00 4,4 3,4 - - 11 6 S 1016,7 12 0,0
19.02.2019 02:00:00 5,4 3,8 - - 11 6 SW 1016,2 16 0,0
19.02.2019 01:00:00 5,7 4,0 - - 13 7 S 1016,1 15 0,0
19.02.2019 00:00:00 5,9 4,2 - - 9 5 SW 1015,8 14 0,0
18.02.2019 23:00:00 5,6 3,5 - - 13 7 SW 1015,3 14 0,0
18.02.2019 22:00:00 6,2 3,7 - - 15 8 SSW 1015,3 14 0,0
18.02.2019 21:00:00 5,6 2,8 - - 16 9 SW 1015,0 17 0,0
18.02.2019 20:00:00 6,4 2,2 - - 9 5 SW 1014,8 27 0,0
18.02.2019 19:00:00 7,5 2,3 - - 13 7 SW 1014,1 20 0,0
18.02.2019 18:00:00 7,2 1,3 - - 11 6 SW 1013,8 29 0,0
18.02.2019 17:00:00 9,3 1,5 - - 13 7 SW 1013,0 30 0,0
18.02.2019 16:00:00 10,2 5,0 - - 15 8 SSW 1012,5 24 0,0
18.02.2019 15:00:00 9,3 5,3 - - 16 9 SSW 1012,6 19 0,0
18.02.2019 14:00:00 9,4 4,6 - - 13 7 SW 1012,8 29 0,0
18.02.2019 13:00:00 10,5 5,8 - - 18 10 WSW 1013,0 25 0,0
18.02.2019 12:00:00 10,9 6,1 - - 22 12 SSW 1013,1 19 0,0
18.02.2019 11:00:00 10,3 6,5 - - 24 13 SSW 1013,3 14 0,0
18.02.2019 10:00:00 9,5 6,9 - - 16 9 SSW 1013,2 14 0,0
18.02.2019 09:00:00 8,1 5,9 6,7 6,9 11 6 SSW 1013,5 16 0,0
18.02.2019 08:00:00 7,8 5,7 - - 11 6 S 1013,3 17 0,0
18.02.2019 07:00:00 8,1 6,5 - - 13 7 SSW 1012,8 11 0,0
18.02.2019 06:00:00 7,6 6,0 - - 13 7 S 1013,0 12 0,0
18.02.2019 05:00:00 6,9 5,5 - - 11 6 S 1013,1 11 0,0
18.02.2019 04:00:00 7,8 5,9 - - 9 5 S 1013,3 12 0,0
18.02.2019 03:00:00 8,2 5,9 - - 13 7 S 1013,4 12 0,0
18.02.2019 02:00:00 8,9 6,0 - - 13 7 SSW 1013,9 13 0,0
18.02.2019 01:00:00 9,2 5,8 - - 15 8 S 1014,1 14 0,0
18.02.2019 00:00:00 8,8 5,6 - - 15 8 S 1014,1 15 0,0
17.02.2019 23:00:00 8,8 6,1 - - 15 8 S 1013,9 13 0,0
17.02.2019 22:00:00 8,6 5,6 - - 15 8 S 1013,8 15 0,0
17.02.2019 21:00:00 8,8 6,1 - - 11 6 S 1013,8 15 0,0
17.02.2019 20:00:00 9,4 6,3 - - 15 8 S 1013,4 15 0,0
17.02.2019 19:00:00 10,5 6,9 - - 18 10 S 1013,0 18 0,0
17.02.2019 18:00:00 11,3 7,0 - - 18 10 S 1012,7 21 0,0
17.02.2019 17:00:00 11,8 7,9 - - 11 6 S 1012,1 15 0,0
17.02.2019 16:00:00 12,6 7,6 - - 21 11 SSW 1012,3 18 0,0
17.02.2019 15:00:00 12,8 7,8 - - 22 12 SSW 1012,2 19 0,0
17.02.2019 14:00:00 12,6 8,2 - - 22 12 SSW 1012,2 18 0,0
17.02.2019 13:00:00 12,6 8,6 - - 24 13 SSW 1012,4 18 0,0
17.02.2019 12:00:00 12,0 7,7 - - 24 13 SSW 1012,5 17 -
17.02.2019 11:00:00 11,0 6,5 - - 22 12 S 1012,4 23 -
17.02.2019 10:00:00 10,7 6,0 - - 18 10 S 1012,4 21 0,0
17.02.2019 09:00:00 10,1 5,2 6,2 6,9 15 8 SE 1012,0 12 0,0
17.02.2019 08:00:00 7,4 4,5 - - 24 13 SE 1012,2 11 0,0
17.02.2019 07:00:00 7,2 4,8 - - 21 11 SE 1012,7 10 0,0
17.02.2019 06:00:00 7,9 5,7 - - 22 12 SE 1013,5 9 0,0
17.02.2019 05:00:00 8,6 6,4 - - 28 15 SSE 1014,0 9 0,0
17.02.2019 04:00:00 8,7 6,8 - - 24 13 SSE 1014,7 10 0,0
17.02.2019 03:00:00 9,3 7,6 - - 24 13 SSE 1015,7 10 0,0
17.02.2019 02:00:00 9,4 7,6 - - 13 7 SSE 1016,7 16 0,0
17.02.2019 01:00:00 9,4 7,3 - - 18 10 S 1017,4 20 0,0
17.02.2019 00:00:00 9,8 7,7 - - 16 9 S 1018,3 17 0,0
16.02.2019 23:00:00 9,7 8,0 - - 9 5 S 1019,1 15 0,0
16.02.2019 22:00:00 10,8 8,3 - - 18 10 S 1019,2 18 0,0
16.02.2019 21:00:00 11,7 9,0 - - 21 11 S 1019,5 17 0,0
16.02.2019 20:00:00 12,1 9,2 - - 18 10 S 1019,6 30 0,0
16.02.2019 19:00:00 12,4 9,1 - - 16 9 S 1019,7 35 0,0
16.02.2019 18:00:00 12,6 9,3 - - 18 10 S 1019,6 40 0,0
16.02.2019 17:00:00 13,0 9,5 - - 18 10 S 1019,2 30 0,0
16.02.2019 16:00:00 13,3 9,5 - - 16 9 S 1019,6 28 0,0
16.02.2019 15:00:00 13,0 9,5 - - 15 8 SSW 1020,3 25 0,0
16.02.2019 14:00:00 12,4 9,2 - - 16 9 SSW 1021,0 23 0,0
16.02.2019 13:00:00 12,3 8,7 - - 21 11 SSW 1021,5 21 0,0
16.02.2019 12:00:00 12,0 8,6 - - 18 10 SSW 1021,8 20 0,0
16.02.2019 11:00:00 11,7 9,1 - - 11 6 SSW 1021,9 15 0,0
16.02.2019 10:00:00 9,9 8,4 - - 11 6 S 1021,9 13 0,0
16.02.2019 09:00:00 8,9 8,2 5,4 6,9 13 7 S 1021,9 10 0,0
16.02.2019 08:00:00 8,4 7,8 - - 9 5 S 1021,5 5 0,0
16.02.2019 07:00:00 8,8 7,8 - - 5 3 SW 1021,0 8 0,0
16.02.2019 06:00:00 9,9 8,5 - - 13 7 SSW 1020,6 9 0,0
16.02.2019 05:00:00 9,4 7,8 - - 16 9 SSW 1020,5 9 0,0
16.02.2019 04:00:00 8,9 7,2 - - 13 7 SSW 1020,5 8 0,0
16.02.2019 03:00:00 7,9 6,0 - - 13 7 S 1020,7 9 0,0
16.02.2019 02:00:00 7,5 5,4 - - 8 4 S 1021,0 11 0,0
16.02.2019 01:00:00 6,6 4,5 - - 11 6 S 1021,2 12 0,0

tt = temperature
td = dewpoint
tt -20cm = temperature -20cm
tt -100cm = temperature -100cm
ff = wind speed
dd = wind direction
ppp = reduced air pressure
vv = visibility
rr = precipitation

Next stations